FW6192 Weather Reports


time (UTC)temp
C
wind
direction
speed
KPH
gust
KPH
rain 1hr
cm
rain 24hr
cm
rain mn
cm
humidity
%
barometer
mb
20260503071613 10 227 1.6 9.7 0.00 0.00 0.00 57 1011.0
20260503054609 10 208 0.0 6.4 0.00 0.00 0.00 58 1012.0
20260503053053 10 188 1.6 8.0 0.00 0.00 0.00 57 1012.1
20260503051542 10 210 3.2 11.3 0.00 0.00 0.00 56 1012.1
20260503050030 11 205 3.2 16.1 0.00 0.00 0.00 55 1012.2
20260503044540 11 219 6.4 14.5 0.00 0.00 0.00 55 1012.3
20260503043108 11 204 4.8 17.7 0.00 0.00 0.00 54 1012.3
20260503041601 11 210 3.2 14.5 0.00 0.00 0.00 54 1012.6
20260503040045 11 180 4.8 9.7 0.00 0.00 0.00 55 1012.7
20260503034532 11 209 1.6 6.4 0.00 0.00 0.00 56 1013.0
20260503033021 11 175 0.0 3.2 0.00 0.00 0.00 57 1013.1
20260503031614 11 208 1.6 4.8 0.00 0.00 0.00 58 1013.4
20260503024547 10 146 0.0 3.2 0.00 0.00 0.00 62 1013.6
20260503023035 10 153 0.0 1.6 0.00 0.00 0.00 65 1013.6
20260503021524 10 151 0.0 1.6 0.00 0.00 0.00 62 1013.6
20260503020008 10 187 0.0 1.6 0.00 0.00 0.00 62 1013.6
20260503014609 10 217 0.0 1.6 0.00 0.00 0.00 58 1013.7
20260503013102 11 217 0.0 0.0 0.00 0.00 0.00 55 1013.6
20260503011619 12 217 0.0 0.0 0.00 0.00 0.00 50 1013.6
20260503010055 12 217 0.0 1.6 0.00 0.00 0.00 50 1013.7
20260503004546 13 257 0.0 3.2 0.00 0.00 0.00 49 1013.7
20260503003030 13 254 3.2 14.5 0.00 0.00 0.00 46 1013.7
20260503001509 14 251 4.8 11.3 0.00 0.00 0.00 45 1013.9
20260503000123 15 294 3.2 12.9 0.00 0.00 0.00 43 1013.9
20260502234605 15 286 4.8 11.3 0.00 0.00 0.00 41 1013.8
20260502233048 15 243 4.8 17.7 0.00 0.00 0.00 38 1014.0
20260502231539 15 267 4.8 17.7 0.00 0.00 0.00 39 1014.1
20260502230027 15 308 4.8 17.7 0.00 0.00 0.00 40 1014.4
20260502224519 15 294 3.2 17.7 0.00 0.00 0.00 42 1014.7
20260502223107 15 262 6.4 17.7 0.00 0.00 0.00 40 1014.7
20260502221613 15 261 8.0 20.9 0.00 0.00 0.00 40 1014.8
20260502220056 15 288 6.4 16.1 0.00 0.00 0.00 41 1014.8
20260502214537 15 294 6.4 16.1 0.00 0.00 0.00 39 1015.0
20260502213023 15 264 9.7 24.1 0.00 0.00 0.00 41 1015.1
20260502211611 15 247 9.7 17.7 0.00 0.00 0.00 41 1015.3
20260502210131 15 252 6.4 12.9 0.00 0.00 0.00 41 1015.5
20260502204550 15 263 4.8 14.5 0.00 0.00 0.00 44 1015.6
20260502203038 14 217 3.2 14.5 0.00 0.00 0.00 45 1015.8
20260502201527 14 307 8.0 17.7 0.00 0.00 0.00 41 1016.0
20260502200008 15 235 8.0 20.9 0.00 0.00 0.00 41 1016.3
20260502194608 15 205 9.7 20.9 0.00 0.00 0.00 43 1016.3
20260502193057 14 217 4.8 16.1 0.00 0.00 0.00 40 1016.8
20260502191556 13 271 8.0 16.1 0.00 0.00 0.00 43 1017.0
20260502190044 13 308 6.4 19.3 0.00 0.00 0.00 45 1017.2
20260502184524 13 285 6.4 14.5 0.00 0.00 0.00 42 1017.4
20260502183002 13 281 9.7 17.7 0.00 0.00 0.00 43 1017.6
20260502181605 13 271 4.8 17.7 0.00 0.00 0.00 45 1017.8
20260502170109 13 266 6.4 22.5 0.00 0.00 0.00 45 1018.5
20260502163055 12 300 6.4 19.3 0.00 0.00 0.00 46 1018.9
20260502161537 12 296 9.7 24.1 0.00 0.00 0.00 48 1019.2
20260502151604 11 283 4.8 14.5 0.00 0.00 0.00 52 1019.5
20260502140118 9 282 4.8 11.3 0.00 0.00 0.00 55 1020.3
20260502130109 6 226 3.2 11.3 0.00 0.00 0.00 66 1020.4
20260502123043 5 255 0.0 11.3 0.00 0.00 0.00 69 1020.4
20260502121537 4 250 0.0 6.4 0.00 0.00 0.00 71 1020.5
20260502114610 3 198 0.0 0.0 0.00 0.00 0.00 77 1020.5
20260502113105 2 198 0.0 0.0 0.00 0.00 0.00 78 1020.4
20260502111603 2 223 0.0 0.0 0.00 0.00 0.00 77 1020.4
20260502104544 2 220 0.0 0.0 0.00 0.00 0.00 80 1020.3
20260502103036 2 220 0.0 1.6 0.00 0.00 0.00 83 1020.4
20260502101528 1 143 0.0 1.6 0.00 0.00 0.00 90 1020.5
20260502091512 1 143 0.0 0.0 0.00 0.00 0.00 91 1020.4
20260502090117 0 143 0.0 0.0 0.00 0.00 0.00 91 1020.4